This is the latest recevied weather packets stored in our database for station/object S51UL-6. If no packets are shown the sender has not sent any weather packets the latest 10 day(s).
| Time | Temp. | Humidity | Pressure | Rain* | Wind** | Luminosity | Snow |
|---|---|---|---|---|---|---|---|
| 1787759890 | 28.33° C | 54% | 1017.8 hPa | 0 mm | - | - | - |
| 1787759590 | 28.33° C | 54% | 1017.8 hPa | 0 mm | - | - | - |
| 1787759290 | 28.89° C | 53% | 1017.7 hPa | 0 mm | - | - | - |
| 1787758990 | 28.89° C | 53% | 1017.9 hPa | 0 mm | - | - | - |
| 1787758690 | 28.89° C | 53% | 1017.9 hPa | 0 mm | - | - | - |
| 1787757490 | 29.44° C | 52% | 1017.9 hPa | 0 mm | - | - | - |
| 1787757190 | 30° C | 51% | 1018 hPa | 0 mm | - | - | - |
| 1787756890 | 30° C | 51% | 1018 hPa | 0 mm | - | - | - |
| 1787756291 | 30.56° C | 50% | 1018 hPa | 0 mm | - | - | - |
| 1787755990 | 31.11° C | 49% | 1017.9 hPa | 0 mm | - | - | - |
| 1787755690 | 31.67° C | 48% | 1018 hPa | 0 mm | - | - | - |
| 1787755391 | 31.67° C | 49% | 1018 hPa | 0 mm | - | - | - |
| 1787755091 | 31.67° C | 49% | 1018 hPa | 0 mm | - | - | - |
| 1787754792 | 31.67° C | 50% | 1018 hPa | 0 mm | - | - | - |
| 1787754490 | 31.67° C | 49% | 1018 hPa | 0 mm | - | - | - |
| 1787754191 | 31.67° C | 48% | 1017.8 hPa | 0 mm | - | - | - |
| 1787753591 | 32.22° C | 47% | 1018 hPa | 0 mm | - | - | - |
| 1787753292 | 32.22° C | 47% | 1017.9 hPa | 0 mm | - | - | - |
| 1787752991 | 32.22° C | 47% | 1018 hPa | 0 mm | - | - | - |
| 1787752692 | 32.78° C | 48% | 1018 hPa | 0 mm | - | - | - |
| 1787752391 | 32.78° C | 47% | 1018 hPa | 0 mm | - | - | - |
| 1787752091 | 32.22° C | 47% | 1017.9 hPa | 0 mm | - | - | - |
| 1787751491 | 32.22° C | 47% | 1018 hPa | 0 mm | - | - | - |
| 1787750893 | 32.22° C | 47% | 1018 hPa | 0 mm | - | - | - |
| 1787750591 | 32.22° C | 46% | 1018.1 hPa | 0 mm | - | - | - |
* Rain latest hour (hover to see other rain measurements)
** Current wind speed in m/s (hover to see current wind gust speed)